Regional Weather Roundup
Issued by NWS

Home | Current Version | Previous Version | Graphics & Text | Print | Product List | Glossary On
Versions: 1 2 3 4 5 6 7 8 9 10 11 12 13 14 15 16 17 18 19 20 21 22 23 24 25 26 27 28 29 30 31 32 33 34 35 36 37 38 39 40 41 42 43 44 45 46 47 48 49 50
000
ASUS43 KIND 241759
RWRIN

WEATHER ROUNDUP FOR INDIANA
NATIONAL WEATHER SERVICE INDIANAPOLIS IN
100 PM EST TUE JAN 24 2017

NOTE: "FAIR" INDICATES FEW OR NO CLOUDS BELOW 12,000 FEET WITH NO
SIGNIFICANT WEATHER AND/OR OBSTRUCTIONS TO VISIBILITY.

* - STATION DOES NOT REPORT WEATHER SUCH AS PRECIPITATION OR FOG.

+ - STATION NOT QUALITY CONTROLLED BY THE NATIONAL WEATHER SERVICE.
    USE DATA WITH CAUTION...ESPECIALLY DEWPOINT AND RELATIVE
    HUMIDITY OBSERVATIONS.

INZ001>003-010>013-019-020-241900-
NORTHWEST INDIANA

CITY           SKY/WX    TMP DP  RH WIND       PRES   REMARKS
GARY /AIRPORT/ CLOUDY    39  32  75 W7        29.88F
KNOX *+        CLOUDY    36  21  55 NW5       29.87S
MONTICELLO +   CLOUDY    39  33  77 W5        29.88S
6HR MIN TEMP:  37; 6HR MAX TEMP:  39;


$$

LMZ046-743>745-241900-
SOUTHERN LAKE MICHIGAN

STATION/POSITION TIME  TEMP    WIND        PRES    WAVE
                       AIR SEA DIR/SP/G            HT
                 (UTC) (F)     (DEG/KT/KT) (MB)    (FT)
BURNS HARBOR     1740   35     300/  5/  7 1012.5F

$$

INZ004-005-014>016-021>024-241900-
NORTH CENTRAL INDIANA

CITY           SKY/WX    TMP DP  RH WIND       PRES   REMARKS
ELKHART        CLOUDY    39  32  75 NW9       29.83F
GOSHEN         CLOUDY    40  32  73 NW13      29.83F
6HR MIN TEMP:  38; 6HR MAX TEMP:  40;

SOUTH BEND     CLOUDY    37  33  85 NW10      29.86S
6HR MIN TEMP:  37; 6HR MAX TEMP:  38;


$$

INZ006>009-017-018-025>027-241900-
NORTHEAST INDIANA

CITY           SKY/WX    TMP DP  RH WIND       PRES   REMARKS
ANGOLA *+      CLOUDY    37  28  70 NW12      29.80F
FORT WAYNE     CLOUDY    40  33  76 NW10      29.82F
6HR MIN TEMP:  39; 6HR MAX TEMP:  42; 6HR PCP: TRACE;

KENDALLVILLE + CLOUDY    38  35  87 NW9       29.81F

$$

INZ028-029-035-036-043>045-051>053-241900-
WEST CENTRAL INDIANA

CITY           SKY/WX    TMP DP  RH WIND       PRES   REMARKS
CRAWFORDSVL +  CLOUDY    37  35  90 W6        29.88F
6HR MIN TEMP:  36; 6HR MAX TEMP:  38;

LAFAYETTE      CLOUDY    39  34  82 NW6       29.88F
6HR MIN TEMP:  38; 6HR MAX TEMP:  39;

TERRE HAUTE    CLOUDY    42  32  67 CALM      29.89F
6HR MIN TEMP:  40; 6HR MAX TEMP:  42;


$$

INZ030>032-037>040-046>048-054>057-064-065-241900-
CENTRAL INDIANA

CITY           SKY/WX    TMP DP  RH WIND       PRES   REMARKS
COLUMBUS       CLOUDY    41  37  87 NW6       29.88F
INDIANAPOLIS   CLOUDY    41  33  73 NW8       29.88F
6HR MIN TEMP:  39; 6HR MAX TEMP:  41;

-EAGLE CREEK   CLOUDY    41  33  73 W7        29.87F
6HR MIN TEMP:  40; 6HR MAX TEMP:  41;

KOKOMO +       CLOUDY    40  33  76 W9        29.87F
6HR MIN TEMP:  38; 6HR MAX TEMP:  40;

MT COMFORT *+  CLOUDY    39  34  81 NW7       29.87F
SHELBYVILLE    CLOUDY    42  33  70 NW6       29.86F
6HR MIN TEMP:  40; 6HR MAX TEMP:  42;


$$

INZ033-034-041-042-049-050-058-059-241900-
EAST CENTRAL INDIANA

CITY           SKY/WX    TMP DP  RH WIND       PRES   REMARKS
MUNCIE         CLOUDY    40  34  79 NW10      29.84F
6HR MIN TEMP:  40; 6HR MAX TEMP:  41;


$$

INZ060-061-067>069-081>083-085>088-241900-
SOUTHWEST INDIANA

CITY           SKY/WX    TMP DP  RH WIND       PRES   REMARKS
EVANSVILLE     CLOUDY    43  33  68 CALM      29.91F
6HR MIN TEMP:  41; 6HR MAX TEMP:  44;

HUNTINGBURG *+ CLOUDY    43  34  70 CALM      29.90F
6HR MIN TEMP:  39; 6HR MAX TEMP:  43;


$$

INZ062-063-066-070>080-084-089>092-241900-
SOUTH CENTRAL AND SOUTHEAST INDIANA

CITY           SKY/WX    TMP DP  RH WIND       PRES   REMARKS
BLOOMINGTON    CLOUDY    42  32  67 W3        29.88F
6HR MIN TEMP:  40; 6HR MAX TEMP:  42;

MADISON *+     CLOUDY    43  32  65 W7        29.89F
SEYMOUR +      CLOUDY    45  34  65 CALM      29.87F

$$




USA.gov is the U.S. government's official web portal to all federal, state and local government web resources and services.